| time (UTC) | temp C | wind direction | speed KPH | gust KPH | rain 1hr cm | rain 24hr cm | rain mn cm | humidity % | barometer mb |
| 20260506140053 | 20 | 298 | 11.3 | 17.7 | 0.00 | 0.00 | 0.00 | 34 | 1013.5 |
| 20260506134550 | 19 | 306 | 12.9 | 17.7 | 0.00 | 0.00 | 0.00 | 36 | 1013.2 |
| 20260506133105 | 18 | 302 | 8.0 | 11.3 | 0.00 | 0.00 | 0.00 | 41 | 1013.0 |
| 20260506131553 | 17 | 308 | 8.0 | 11.3 | 0.00 | 0.00 | 0.00 | 44 | 1012.8 |
| 20260506130119 | 16 | 304 | 3.2 | 4.8 | 0.00 | 0.00 | 0.00 | 46 | 1012.6 |
| 20260506124554 | 16 | 0 | 0.0 | 0.0 | 0.00 | 0.00 | 0.00 | 47 | 1012.4 |
| 20260506123050 | 16 | 0 | 0.0 | 0.0 | 0.00 | 0.00 | 0.00 | 46 | 1012.2 |
| 20260506121549 | 16 | 0 | 0.0 | 0.0 | 0.00 | 0.00 | 0.00 | 46 | 1011.7 |
| 20260506120053 | 16 | 0 | 0.0 | 1.6 | 0.00 | 0.00 | 0.00 | 46 | 1011.7 |
| 20260506114549 | 17 | 328 | 1.6 | 4.8 | 0.00 | 0.00 | 0.00 | 44 | 1011.6 |
| 20260506113050 | 17 | 300 | 1.6 | 3.2 | 0.00 | 0.00 | 0.00 | 45 | 1011.5 |
| 20260506111553 | 17 | 329 | 1.6 | 4.8 | 0.00 | 0.00 | 0.00 | 45 | 1011.4 |
| 20260506110051 | 18 | 333 | 3.2 | 4.8 | 0.00 | 0.00 | 0.00 | 46 | 1011.4 |
| 20260506104610 | 18 | 296 | 4.8 | 9.7 | 0.00 | 0.00 | 0.00 | 46 | 1011.2 |
| 20260506103048 | 18 | 290 | 4.8 | 6.4 | 0.00 | 0.00 | 0.00 | 45 | 1011.1 |
| 20260506101550 | 17 | 296 | 3.2 | 3.2 | 0.00 | 0.00 | 0.00 | 49 | 1010.9 |
| 20260506100051 | 18 | 275 | 1.6 | 3.2 | 0.00 | 0.00 | 0.00 | 48 | 1010.8 |
| 20260506094555 | 19 | 252 | 1.6 | 4.8 | 0.00 | 0.00 | 0.00 | 43 | 1010.7 |
| 20260506093052 | 19 | 227 | 3.2 | 4.8 | 0.00 | 0.00 | 0.00 | 43 | 1010.7 |
| 20260506091602 | 19 | 258 | 3.2 | 4.8 | 0.00 | 0.00 | 0.00 | 43 | 1010.5 |
| 20260506090050 | 19 | 236 | 4.8 | 11.3 | 0.00 | 0.00 | 0.00 | 42 | 1010.4 |
| 20260506084550 | 19 | 292 | 6.4 | 9.7 | 0.00 | 0.00 | 0.00 | 43 | 1010.6 |
| 20260506083052 | 19 | 265 | 4.8 | 9.7 | 0.00 | 0.00 | 0.00 | 42 | 1010.4 |
| 20260506081547 | 19 | 238 | 6.4 | 11.3 | 0.00 | 0.00 | 0.00 | 42 | 1010.6 |
| 20260506073050 | 20 | 259 | 6.4 | 11.3 | 0.00 | 0.00 | 0.00 | 42 | 1010.4 |
| 20260506071606 | 20 | 249 | 4.8 | 8.0 | 0.00 | 0.00 | 0.00 | 43 | 1010.7 |
| 20260506061547 | 21 | 0 | 0.0 | 0.0 | 0.00 | 0.00 | 0.00 | 34 | 1010.5 |
| 20260506044605 | 20 | 0 | 0.0 | 1.6 | 0.00 | 0.00 | 0.00 | 42 | 1010.2 |
| 20260506043056 | 20 | 44 | 0.0 | 6.4 | 0.00 | 0.00 | 0.00 | 40 | 1010.1 |
| 20260506041554 | 21 | 155 | 6.4 | 14.5 | 0.00 | 0.00 | 0.00 | 37 | 1009.6 |
| 20260506040054 | 21 | 0 | 0.0 | 0.0 | 0.00 | 0.00 | 0.00 | 37 | 1009.1 |
| 20260506034557 | 20 | 105 | 0.0 | 1.6 | 0.00 | 0.00 | 0.00 | 44 | 1008.8 |
| 20260506033052 | 21 | 0 | 0.0 | 4.8 | 0.00 | 0.00 | 0.00 | 37 | 1008.8 |
| 20260506031557 | 22 | 0 | 0.0 | 1.6 | 0.00 | 0.00 | 0.00 | 34 | 1008.8 |
| 20260506030054 | 22 | 0 | 0.0 | 0.0 | 0.00 | 0.00 | 0.00 | 33 | 1008.6 |
| 20260506024552 | 23 | 146 | 1.6 | 3.2 | 0.00 | 0.00 | 0.00 | 33 | 1008.5 |
| 20260506023055 | 24 | 0 | 0.0 | 0.0 | 0.00 | 0.00 | 0.00 | 27 | 1008.2 |
| 20260506021557 | 25 | 0 | 0.0 | 0.0 | 0.00 | 0.00 | 0.00 | 25 | 1008.0 |
| 20260506020050 | 25 | 0 | 0.0 | 1.6 | 0.00 | 0.00 | 0.00 | 23 | 1007.9 |
| 20260506014547 | 25 | 252 | 0.0 | 1.6 | 0.00 | 0.00 | 0.00 | 23 | 1007.8 |
| 20260506013048 | 26 | 0 | 0.0 | 3.2 | 0.00 | 0.00 | 0.00 | 24 | 1007.9 |
| 20260506011552 | 27 | 164 | 0.0 | 1.6 | 0.00 | 0.00 | 0.00 | 25 | 1007.8 |
| 20260506010057 | 28 | 157 | 0.0 | 1.6 | 0.00 | 0.00 | 0.00 | 22 | 1007.9 |
| 20260506004548 | 28 | 0 | 0.0 | 1.6 | 0.00 | 0.00 | 0.00 | 20 | 1007.8 |
| 20260506003048 | 28 | 225 | 0.0 | 1.6 | 0.00 | 0.00 | 0.00 | 20 | 1007.8 |
| 20260506001604 | 28 | 166 | 1.6 | 6.4 | 0.00 | 0.00 | 0.00 | 18 | 1007.8 |
| 20260506000053 | 28 | 229 | 3.2 | 9.7 | 0.00 | 0.00 | 0.00 | 18 | 1007.8 |
| 20260505234608 | 28 | 284 | 4.8 | 16.1 | 0.00 | 0.00 | 0.00 | 18 | 1007.8 |
| 20260505233049 | 28 | 277 | 6.4 | 12.9 | 0.00 | 0.00 | 0.00 | 19 | 1008.0 |
| 20260505231548 | 28 | 294 | 12.9 | 22.5 | 0.00 | 0.00 | 0.00 | 18 | 1008.2 |
| 20260505230048 | 28 | 294 | 16.1 | 27.4 | 0.00 | 0.00 | 0.00 | 19 | 1008.2 |
| 20260505224547 | 28 | 291 | 19.3 | 27.4 | 0.00 | 0.00 | 0.00 | 18 | 1008.6 |
| 20260505223104 | 28 | 298 | 24.1 | 29.0 | 0.00 | 0.00 | 0.00 | 18 | 1008.8 |
| 20260505221547 | 28 | 298 | 20.9 | 40.2 | 0.00 | 0.00 | 0.00 | 18 | 1008.8 |
| 20260505220050 | 28 | 281 | 22.5 | 33.8 | 0.00 | 0.00 | 0.00 | 16 | 1008.9 |
| 20260505214555 | 28 | 290 | 22.5 | 33.8 | 0.00 | 0.00 | 0.00 | 18 | 1009.2 |
| 20260505213054 | 27 | 294 | 25.7 | 37.0 | 0.00 | 0.00 | 0.00 | 17 | 1009.3 |
| 20260505211605 | 28 | 305 | 20.9 | 32.2 | 0.00 | 0.00 | 0.00 | 16 | 1009.4 |
| 20260505210056 | 28 | 294 | 20.9 | 30.6 | 0.00 | 0.00 | 0.00 | 18 | 1009.3 |
| 20260505204552 | 29 | 298 | 22.5 | 35.4 | 0.00 | 0.00 | 0.00 | 18 | 1009.6 |
| 20260505203116 | 28 | 296 | 22.5 | 30.6 | 0.00 | 0.00 | 0.00 | 20 | 1009.6 |
| 20260505201551 | 28 | 278 | 17.7 | 27.4 | 0.00 | 0.00 | 0.00 | 22 | 1009.7 |
| 20260505200050 | 28 | 291 | 20.9 | 32.2 | 0.00 | 0.00 | 0.00 | 21 | 1009.8 |
| 20260505194554 | 28 | 299 | 17.7 | 30.6 | 0.00 | 0.00 | 0.00 | 23 | 1010.0 |
| 20260505193052 | 28 | 295 | 22.5 | 33.8 | 0.00 | 0.00 | 0.00 | 23 | 1009.9 |
| 20260505191553 | 28 | 300 | 12.9 | 29.0 | 0.00 | 0.00 | 0.00 | 23 | 1010.0 |
| 20260505190051 | 28 | 296 | 22.5 | 33.8 | 0.00 | 0.00 | 0.00 | 22 | 1010.2 |
| 20260505184551 | 28 | 292 | 20.9 | 37.0 | 0.00 | 0.00 | 0.00 | 22 | 1010.3 |
| 20260505183052 | 28 | 297 | 24.1 | 33.8 | 0.00 | 0.00 | 0.00 | 22 | 1010.5 |
| 20260505181553 | 28 | 276 | 16.1 | 27.4 | 0.00 | 0.00 | 0.00 | 22 | 1010.8 |
| 20260505180057 | 28 | 301 | 16.1 | 29.0 | 0.00 | 0.00 | 0.00 | 23 | 1010.8 |
| 20260505174548 | 28 | 288 | 19.3 | 35.4 | 0.00 | 0.00 | 0.00 | 22 | 1010.8 |
| 20260505173052 | 27 | 307 | 22.5 | 30.6 | 0.00 | 0.00 | 0.00 | 23 | 1011.0 |
| 20260505171548 | 27 | 287 | 27.4 | 37.0 | 0.00 | 0.00 | 0.00 | 23 | 1011.0 |
| 20260505170049 | 26 | 304 | 17.7 | 29.0 | 0.00 | 0.00 | 0.00 | 25 | 1011.1 |
| 20260505164550 | 26 | 310 | 12.9 | 27.4 | 0.00 | 0.00 | 0.00 | 24 | 1011.2 |
| 20260505163048 | 26 | 320 | 19.3 | 25.7 | 0.00 | 0.00 | 0.00 | 24 | 1011.4 |
| 20260505161551 | 26 | 265 | 17.7 | 29.0 | 0.00 | 0.00 | 0.00 | 24 | 1011.6 |
| 20260505153055 | 25 | 287 | 17.7 | 24.1 | 0.00 | 0.00 | 0.00 | 24 | 1011.6 |
| 20260505151551 | 25 | 290 | 12.9 | 24.1 | 0.00 | 0.00 | 0.00 | 25 | 1011.4 |